This is the latest recevied weather packets stored in our database for station/object IZ4UFQ-10. If no packets are shown the sender has not sent any weather packets the latest 10 day(s).
| Time | Temp. | Humidity | Pressure | Rain* | Wind** | Luminosity | Snow |
|---|---|---|---|---|---|---|---|
| 1777303834 | 25° C | 51% | 1014.7 hPa | 0 mm | - | 355 W/m² | - |
| 1777303534 | 25° C | 50% | 1014.7 hPa | 0 mm | - | 380 W/m² | - |
| 1777303233 | 25° C | 49% | 1014.8 hPa | 0 mm | - | 388 W/m² | - |
| 1777302933 | 25° C | 49% | 1014.8 hPa | 0 mm | - | 406 W/m² | - |
| 1777302633 | 25° C | 49% | 1014.9 hPa | 0 mm | - | 418 W/m² | - |
| 1777302333 | 25° C | 49% | 1014.9 hPa | 0 mm | - | 439 W/m² | - |
| 1777302032 | 25° C | 48% | 1015 hPa | 0 mm | - | 454 W/m² | - |
| 1777301732 | 25° C | 48% | 1015 hPa | 0 mm | - | 466 W/m² | - |
| 1777301432 | 25° C | 47% | 1015 hPa | 0 mm | - | 483 W/m² | - |
| 1777301131 | 25° C | 47% | 1014.9 hPa | 0 mm | - | 497 W/m² | - |
| 1777300831 | 25° C | 46% | 1015.1 hPa | 0 mm | - | 513 W/m² | - |
| 1777300531 | 25.56° C | 46% | 1015.1 hPa | 0 mm | - | 527 W/m² | - |
| 1777300230 | 25.56° C | 47% | 1015.1 hPa | 0 mm | - | 545 W/m² | - |
| 1777299930 | 25° C | 48% | 1015.1 hPa | 0 mm | - | 271 W/m² | - |
| 1777299630 | 25° C | 47% | 1015.2 hPa | 0 mm | - | 575 W/m² | - |
| 1777299330 | 25° C | 48% | 1015.2 hPa | 0 mm | - | 589 W/m² | - |
| 1777299029 | 25° C | 47% | 1015.3 hPa | 0 mm | - | 596 W/m² | - |
| 1777298729 | 25° C | 48% | 1015.4 hPa | 0 mm | - | 605 W/m² | - |
| 1777298429 | 25° C | 49% | 1015.5 hPa | 0 mm | - | 619 W/m² | - |
| 1777298128 | 25° C | 48% | 1015.6 hPa | 0 mm | - | 633 W/m² | - |
| 1777297828 | 25° C | 49% | 1015.6 hPa | 0 mm | - | 645 W/m² | - |
| 1777297528 | 24.44° C | 48% | 1015.7 hPa | 0 mm | - | 659 W/m² | - |
| 1777297227 | 24.44° C | 49% | 1015.8 hPa | 0 mm | - | 664 W/m² | - |
| 1777296927 | 24.44° C | 50% | 1015.7 hPa | 0 mm | - | 673 W/m² | - |
| 1777296627 | 24.44° C | 51% | 1015.7 hPa | 0 mm | - | 680 W/m² | - |
* Rain latest hour (hover to see other rain measurements)
** Current wind speed in m/s (hover to see current wind gust speed)